Weather in Krivskoye

Russia / Kurgan Oblast     56°20′48″N   63°21′55″E
temp.,
°C
wind,
m/s
gust,
m/s
humid.,
%
clouds,
%
prec.,
mm/h
press.,
hPa
HPBL,
m
4 march, thu
thu423:00−7ssw3593100 0.0 99982
02:00−9sw349294 0.0 99846
05:00−9sw349471 0.0 99835
08:00−11sw349351 0.0 99765
11:00−6wsw599161 0.0 997410
14:00−4wsw589098 0.1 997652
17:00−4w5108699 0.3 998651
20:00−10wsw4108766 0.0 999160
5 march, fri
fri523:00−12sw478933 0.0 100091
02:00−11ssw4109058 0.0 998189
05:00−7ssw6129579 0.6 996541
08:00−6sw7158799 0.8 995442
11:00−3wsw8148166 0.8 9951062
14:00−2wsw8127995 0.0 9971169
17:00−2wsw5128295 0.1 999717
20:00−4wsw5148299 0.0 1000376
6 march, sat
sat623:00−8w5128689 0.0 1003281
02:00−12w4109113 0.0 1004146
05:00−14w410916 0.0 1006190
08:00−16w511900 0.0 1008225
11:00−12w59870 0.0 1009388
14:00−8wsw698429 0.0 1009824
17:00−8wsw5108365 0.0 1009608
20:00−12wsw488714 0.0 1010129
7 march, sun
sun723:00−14wsw349039 0.0 101037
02:00−15nw2291100 0.0 100920
05:00−16nne1193100 0.0 100920
08:00−18n229370 0.0 100820
11:00−13nnw228534 0.0 1008173
14:00−10nw22802 0.0 1008319
17:00−10wsw128945 0.0 1008224
20:00−12ssw2396100 0.1 101041
8 march, mon
mon823:00−14sw349795 0.1 101184
02:00−18w449421 0.0 101260
05:00−21w239816 0.0 101320
08:00−22sw22950 0.0 101320
11:00−16s458750 0.0 1012230
14:00−11sse71286100 0.0 1010524
17:00−9s71391100 0.4 1007770
20:00−11s51295100 0.2 1006481